Tracking 18851 objects as of 25-Nov-2017
HD Live streaming from Space Station
objects crossing your sky now

NIMBUS 2 DEB

Track NIMBUS 2 DEB now!
10-day predictions


NORAD ID: 26816
Int'l Code: 1966-040L
Perigee: 1,037.3 km
Apogee: 1,136.0 km
Inclination: 100.3 °
Period: 106.8 minutes
Semi major axis: 7457 km
RCS: 0.0128 m2 (small)
Launch date: May 15, 1966
Source: United States (US)
Launch site: AIR FORCE WESTERN TEST RANGE (AFWTR)

Note: This is SATELLITE DEBRIS
aabbcc
Your satellite tracking list
Your tracking list is empty




NASA's NSSDC Master Catalog

Two Line Element Set (TLE):
1 26816U 66040L   17328.93577352 +.00000561 +00000-0 +97377-3 0  9999
2 26816 100.3402 104.1207 0066162 168.9525 309.9225 13.48030689821673
Source of the keplerian elements: AFSPC